Weather History for Key West, FL

Change the Weather History Date:

Tuesday, July 2, 2013

  Actual Average Record
Temperature  
Mean Temperature 82 °F 84 °F  
Max Temperature 86 °F 89 °F 96 °F (1881)
Min Temperature 78 °F 80 °F 69 °F (1888)
Degree Days  
Heating Degree Days 0 0  
Month to date heating degree days 0 0  
Since 1 June heating degree days 0 0  
Since 1 July heating degree days 0 0  
Cooling Degree Days 17 19  
Month to date cooling degree days 32 38  
Year to date cooling degree days 2219 2017  
Since 1 June cooling degree days 590 587  
Growing Degree Days 30 (Base 50)    
Moisture  
Dew Point 74 °F    
Average Humidity 80    
Maximum Humidity 85    
Minimum Humidity 74    
Precipitation  
Precipitation 0.05 in 0.13 in 4.12 in (1935)
Month to date precipitation 0.27 0.25  
Year to date precipitation 23.60 14.99  
Snow  
Snow 0.00 in - - ()
Month to date snowfall 0.0  
Since 1 June snowfall 0.0  
Since 1 July snowfall 0.0  
Snow Depth -    
Sea Level Pressure  
Sea Level Pressure 30.04 in    
Wind  
Wind Speed 8 mph (SE)    
Max Wind Speed 26 mph    
Max Gust Speed 31 mph    
Visibility 8 miles    
Events Fog , Rain    
T = Trace of Precipitation, MM = Missing Value Source: NWS Daily Summary

Daily Weather History Graph

Daily Weather History Graph

Search for Another Location

Airport:

Trip Planner

Search our weather history database for the weather conditions in past years. The results will help you decide how hot, cold, wet, or windy it might be!

Date:

Astronomy

Jul. 02, 2013 Rise Set
Actual Time 6:42 AM EDT 8:19 PM EDT
Civil Twilight 6:16 AM EDT 8:45 PM EDT
Nautical Twilight 5:46 AM EDT 9:16 PM EDT
Astronomical Twilight 5:13 AM EDT 9:48 PM EDT
Moon 2:26 AM EDT (7/2) 3:46 PM EDT (7/2)
Length of Visible Light 14h 28m
Length of Day
13h 37m
Waning Crescent, 26% of the Moon is Illuminated
Jul 2
Waning Crescent
Jul 8
New
Jul 15
First Quarter
Jul 22
Full
Jul 29
Last Quarter

Hourly Weather History & Observations

Time (EDT) Temp. Heat Index Dew Point Humidity Pressure Visibility Wind Dir Wind Speed Gust Speed Precip Events Conditions
12:53 AM 82.9 °F 89.4 °F 73.9 °F 74% 30.02 in 10.0 mi ESE 6.9 mph - N/A   Clear
1:53 AM 82.9 °F 89.4 °F 73.9 °F 74% 30.01 in 10.0 mi ESE 6.9 mph - N/A   Clear
2:53 AM 82.9 °F 90.2 °F 75.0 °F 77% 29.99 in 10.0 mi SE 6.9 mph - N/A   Clear
3:53 AM 82.9 °F 90.2 °F 75.0 °F 77% 29.97 in 10.0 mi SE 8.1 mph - N/A   Clear
4:53 AM 82.9 °F 90.2 °F 75.0 °F 77% 29.96 in 10.0 mi SE 8.1 mph - N/A   Clear
5:53 AM 82.9 °F 90.8 °F 75.9 °F 79% 29.99 in 10.0 mi SE 9.2 mph - N/A   Scattered Clouds
6:53 AM 82.9 °F 90.8 °F 75.9 °F 79% 29.99 in 10.0 mi SE 8.1 mph - N/A   Partly Cloudy
7:53 AM 84.0 °F 92.6 °F 75.9 °F 76% 30.01 in 10.0 mi SE 11.5 mph - N/A   Scattered Clouds
8:53 AM 84.9 °F 94.1 °F 75.9 °F 74% 30.02 in 10.0 mi SSE 11.5 mph - N/A   Clear
10:01 AM 82.4 °F 89.5 °F 75.2 °F 79% 30.04 in 9.0 mi SW 8.1 mph - N/A   Mostly Cloudy
10:24 AM 82.4 °F 88.2 °F 73.4 °F 74% 30.04 in 10.0 mi SW 6.9 mph - N/A   Scattered Clouds
10:53 AM 82.9 °F 90.2 °F 75.0 °F 77% 30.04 in 10.0 mi SW 4.6 mph - N/A   Clear
11:53 AM 82.9 °F 91.8 °F 77.0 °F 82% 30.06 in 10.0 mi SSW 4.6 mph - N/A   Mostly Cloudy
12:53 PM 84.0 °F 93.7 °F 77.0 °F 79% 30.06 in 10.0 mi South 6.9 mph - N/A   Partly Cloudy
1:06 PM 84.2 °F 92.3 °F 75.2 °F 74% 30.06 in 10.0 mi SSW 5.8 mph - N/A   Mostly Cloudy
1:24 PM 84.2 °F 92.3 °F 75.2 °F 74% 30.05 in 10.0 mi SSW 5.8 mph - N/A   Scattered Clouds
1:53 PM 84.9 °F 94.1 °F 75.9 °F 74% 30.04 in 10.0 mi SSW 5.8 mph - N/A   Clear
2:53 PM 81.0 °F 85.2 °F 72.0 °F 74% 30.03 in 10.0 mi SE 15.0 mph 20.7 mph N/A   Mostly Cloudy
3:05 PM 78.8 °F - 73.4 °F 83% 30.02 in 5.0 mi ESE 13.8 mph 31.1 mph 0.00 in Rain Light Rain
3:17 PM 78.8 °F - 73.4 °F 83% 30.01 in 2.5 mi SE 5.8 mph - 0.02 in Rain Rain
3:32 PM 80.6 °F 85.4 °F 73.4 °F 79% 30.02 in 8.0 mi SE 4.6 mph - 0.05 in Rain Light Rain
3:53 PM 82.0 °F 89.4 °F 75.9 °F 82% 30.02 in 10.0 mi South 6.9 mph - 0.05 in   Scattered Clouds
4:53 PM 82.9 °F 90.2 °F 75.0 °F 77% 30.02 in 10.0 mi Calm Calm - N/A   Mostly Cloudy
5:25 PM 80.6 °F 85.4 °F 73.4 °F 79% 30.03 in 10.0 mi East 8.1 mph - N/A   Mostly Cloudy
5:53 PM 79.0 °F - 73.9 °F 84% 30.02 in 10.0 mi East 6.9 mph 16.1 mph N/A   Overcast
6:28 PM 78.8 °F - 75.2 °F 89% 30.04 in 1.5 mi SE 10.4 mph 16.1 mph 0.03 in Rain Heavy Rain
6:31 PM 78.8 °F - 73.4 °F 83% 30.05 in 0.8 mi SE 11.5 mph 16.1 mph 0.13 in Rain Heavy Rain
6:43 PM 78.8 °F - 73.4 °F 83% 30.05 in 0.5 mi East 10.4 mph 18.4 mph 0.59 in Fog , Rain Heavy Rain
6:53 PM 77.0 °F - 73.0 °F 88% 30.06 in 1.0 mi SE 16.1 mph 23.0 mph 0.83 in Rain Rain
7:01 PM 77.0 °F - 73.4 °F 89% 30.06 in 0.5 mi SE 25.3 mph 36.8 mph 0.06 in Fog , Rain Heavy Rain
7:08 PM 77.0 °F - 73.4 °F 89% 30.07 in 0.2 mi SE 19.6 mph 29.9 mph 0.38 in Fog , Rain Heavy Rain
7:17 PM 77.0 °F - 73.4 °F 89% 30.08 in 0.5 mi South 17.3 mph 24.2 mph 0.76 in Fog , Rain Heavy Rain
7:22 PM 75.2 °F - 73.4 °F 94% 30.07 in 1.0 mi South 11.5 mph 23.0 mph 0.87 in Rain Heavy Rain
7:28 PM 75.2 °F - 73.4 °F 94% 30.06 in 2.0 mi South 8.1 mph 18.4 mph 0.96 in Rain Heavy Rain
7:40 PM 77.0 °F - 73.4 °F 89% 30.06 in 5.0 mi Calm Calm - 0.97 in Rain Light Rain
7:53 PM 77.0 °F - 73.9 °F 90% 30.06 in 7.0 mi NNW 3.5 mph - 0.99 in Rain Light Rain
8:53 PM - - - N/A% 30.08 in 8.0 mi ENE 5.8 mph - 0.09 in Rain Light Rain
9:53 PM - - - N/A% 30.09 in 10.0 mi ENE 6.9 mph - 0.00 in Rain Light Rain
10:21 PM - - - N/A% 30.08 in 10.0 mi ENE 4.6 mph - 0.00 in   Mostly Cloudy
10:53 PM - - - N/A% 30.09 in 10.0 mi East 4.6 mph - 0.00 in   Clear
11:53 PM - - - N/A% 30.09 in 10.0 mi East 8.1 mph - N/A   Clear